Total_Precipitation_Accumulation
3.47 3.89 4.67 4.12 3.51 3.39 3.58 3.50 3.30 3.19 3.05 2.91 2.76 2.57 2.30 1.96 1.78 1.69 1.59 1.52 1.46 1.49 1.40 1.42 1.47 1.47 1.62 1.81 1.91 1.93 1.89 1.96 2.18 2.50 2.64 2.65 2.78 2.97 3.26 3.41 3.23 2.44 2.36
2.90 3.48 4.11 3.79 3.30 3.20 3.20 3.26 3.20 3.13 3.09 2.91 2.85 2.60 2.36 2.10 1.83 1.67 1.59 1.47 1.43 1.40 1.23 1.26 1.36 1.35 1.42 1.56 1.70 1.71 1.83 2.12 2.67 3.18 3.37 3.09 3.11 3.30 3.39 3.27 3.16 2.57 2.30
2.37 2.69 3.10 3.29 3.09 3.01 2.83 2.91 3.05 2.93 3.00 2.76 2.61 2.42 2.33 2.12 1.81 1.61 1.53 1.50 1.46 1.36 1.19 1.24 1.28 1.21 1.33 1.48 1.57 1.60 1.85 2.34 3.10 3.99 4.19 3.36 2.95 3.32 3.35 3.14 2.80 2.39 2.12
1.99 2.44 2.57 2.88 2.81 2.64 2.46 2.58 2.63 2.72 2.68 2.57 2.35 2.19 2.11 2.03 1.79 1.51 1.43 1.43 1.37 1.28 1.22 1.26 1.25 1.28 1.29 1.35 1.47 1.74 2.07 2.39 3.13 3.79 3.76 2.79 2.36 2.70 2.90 2.54 2.29 2.15 1.91
1.90 2.24 2.55 2.59 2.37 2.22 2.13 2.24 2.32 2.40 2.35 2.38 2.20 2.05 1.93 1.81 1.62 1.40 1.33 1.34 1.29 1.28 1.21 1.22 1.37 1.45 1.41 1.40 1.53 1.85 2.23 2.61 3.06 3.30 2.84 2.94 2.79 2.53 2.40 2.23 2.07 1.88 1.69
1.54 1.71 2.08 2.21 2.08 2.11 2.04 1.98 2.07 2.08 2.15 2.21 2.09 1.93 1.98 1.89 1.71 1.45 1.30 1.25 1.27 1.30 1.28 1.31 1.44 1.50 1.43 1.42 1.57 1.92 2.24 2.73 2.85 2.24 1.89 2.21 2.20 2.23 2.21 2.18 2.01 1.79 1.67
1.36 1.46 1.72 2.03 2.01 1.96 1.83 1.71 1.83 1.94 1.97 1.97 1.93 1.76 1.84 1.82 1.71 1.47 1.29 1.22 1.18 1.22 1.30 1.33 1.37 1.41 1.38 1.44 1.59 1.93 2.36 2.76 2.50 1.81 1.60 1.88 1.79 1.97 2.21 2.23 2.16 1.86 1.61
1.26 1.33 1.61 1.94 1.91 1.77 1.70 1.70 1.79 1.87 1.78 1.74 1.73 1.63 1.63 1.67 1.65 1.55 1.39 1.33 1.22 1.24 1.35 1.38 1.38 1.36 1.36 1.48 1.72 1.92 2.33 2.35 1.89 1.65 1.53 1.64 1.38 1.74 2.05 2.01 1.93 1.79 1.58
1.52 1.52 1.59 1.63 1.68 1.73 1.89 1.98 2.04 1.95 1.70 1.63 1.64 1.55 1.47 1.47 1.51 1.46 1.48 1.46 1.38 1.37 1.43 1.53 1.49 1.46 1.47 1.59 1.72 1.93 2.35 2.55 2.14 1.90 1.61 1.65 1.40 1.70 2.08 1.92 1.72 1.66 1.68
2.25 2.09 1.86 1.71 1.80 1.72 1.79 2.04 2.15 1.86 1.64 1.59 1.66 1.64 1.63 1.72 1.74 1.74 1.62 1.62 1.69 1.79 1.78 1.84 1.74 1.66 1.70 1.82 1.96 2.15 2.44 2.31 2.07 2.19 2.08 1.67 1.46 1.82 2.14 2.24 2.00 1.76 1.68
2.75 2.58 2.29 2.04 1.86 1.92 1.92 1.97 2.30 2.11 1.90 1.97 2.21 2.25 2.36 2.74 2.52 2.51 2.05 2.09 2.28 2.46 2.48 2.46 2.37 2.23 2.07 1.99 2.25 2.48 2.35 2.14 2.50 2.62 2.36 1.69 1.74 2.30 2.52 2.61 2.43 2.21 2.03
2.80 2.53 2.40 2.31 1.98 1.96 2.07 2.51 3.02 2.62 2.45 2.56 2.88 2.84 3.22 3.26 3.09 2.32 2.35 2.78 3.07 3.41 3.47 3.40 3.35 2.93 2.49 2.23 2.52 2.57 2.30 2.48 2.92 2.54 2.09 1.70 1.93 2.48 2.87 2.94 2.73 2.44 2.35
2.65 2.55 2.31 2.60 2.35 2.40 2.75 2.83 3.04 3.08 2.99 3.00 3.08 3.08 3.37 3.02 2.69 2.57 2.98 3.41 3.73 3.87 3.97 3.94 3.81 3.17 3.16 3.35 3.31 2.96 2.88 2.83 3.15 2.73 2.10 1.98 2.20 2.65 3.02 3.12 2.91 2.66 2.51
2.55 2.55 2.62 2.75 2.84 3.02 3.03 2.92 2.78 2.58 2.59 2.76 2.95 2.93 3.11 3.22 3.20 3.14 3.40 3.59 3.84 4.21 4.59 4.42 4.38 4.01 3.93 3.69 3.47 3.48 3.28 2.97 3.26 3.35 2.72 2.27 2.44 2.88 3.17 3.21 3.05 2.90 2.93
3.24 3.06 3.14 3.37 3.38 3.32 3.34 3.08 2.57 2.41 2.30 2.34 2.52 2.63 2.59 2.99 3.29 3.32 3.23 3.37 3.28 3.48 3.92 4.52 4.39 4.54 4.42 3.98 3.48 3.38 3.49 3.35 3.29 3.21 2.78 2.64 2.85 2.93 3.06 3.17 3.20 3.19 3.22
4.22 3.99 3.81 3.94 3.63 3.45 3.37 3.12 2.85 2.46 2.47 2.38 2.32 2.26 2.47 2.75 3.08 3.08 3.08 3.36 3.34 3.23 3.41 3.91 4.08 4.49 4.44 4.05 3.44 3.16 3.20 3.28 3.15 3.02 2.84 2.77 2.82 2.66 2.79 3.23 3.59 3.77 3.70
5.32 4.93 4.36 4.10 3.87 3.72 3.56 3.16 2.76 2.56 2.39 2.54 2.51 2.35 2.38 2.50 2.77 2.79 2.91 2.95 2.97 2.87 3.04 3.26 3.50 3.79 3.69 3.51 3.43 3.19 3.07 2.99 2.79 2.85 2.89 2.77 2.47 2.63 2.77 3.03 3.38 3.65 3.90
6.05 5.51 4.78 4.04 4.17 4.13 3.93 3.32 2.83 2.62 2.57 2.54 2.41 2.24 2.14 2.27 2.27 2.44 2.48 2.44 2.48 2.35 2.53 2.94 3.00 3.24 3.41 3.39 3.56 3.28 3.04 3.08 2.85 2.79 2.79 2.81 2.81 2.48 2.80 2.96 3.12 3.30 3.69
6.17 6.01 5.39 5.25 5.07 4.45 3.80 3.25 2.88 2.67 2.63 2.38 2.32 2.28 2.21 2.14 2.21 2.36 2.50 2.50 2.14 2.17 2.35 2.18 2.64 2.92 3.13 3.14 2.70 2.82 2.56 2.62 2.59 2.25 2.36 2.31 2.56 2.63 2.84 2.77 2.97 3.03 3.39
5.20 5.11 5.04 5.18 4.79 4.20 3.58 3.17 2.97 2.75 2.50 2.31 2.27 2.36 2.32 2.24 2.23 2.56 2.38 2.21 2.01 2.36 2.68 2.73 3.05 2.99 2.85 2.86 2.34 2.42 2.25 2.11 2.19 2.08 1.96 2.04 2.19 2.17 2.56 2.75 2.85 2.55 2.91
3.72 3.84 4.16 4.34 4.12 3.67 3.28 2.82 2.71 2.68 2.46 2.26 2.17 2.01 2.17 2.11 2.33 2.70 2.45 2.75 2.42 2.50 2.67 2.69 2.92 2.87 2.57 2.51 2.89 2.92 2.32 1.86 1.91 1.79 1.75 1.96 1.94 2.06 2.48 2.80 2.98 2.96 2.79
2.95 3.23 3.57 3.80 3.68 3.10 2.87 2.72 2.64 2.61 2.45 2.49 2.38 2.36 2.10 2.08 2.30 2.36 2.74 2.53 2.59 2.76 2.77 2.83 2.98 2.97 2.66 2.61 3.04 3.38 2.98 2.85 2.44 1.67 1.74 1.90 1.92 2.15 2.22 2.24 2.56 3.01 2.92
2.74 2.97 2.87 3.13 3.32 3.05 2.96 2.92 2.83 2.79 2.60 2.70 2.67 2.55 2.18 2.02 2.02 2.20 2.38 2.41 2.66 2.46 2.81 3.05 3.01 3.09 3.07 2.89 2.94 3.39 3.40 3.24 2.72 2.13 1.73 1.72 1.94 2.31 2.31 2.33 2.19 2.52 2.85
2.03 2.33 2.68 3.00 3.09 3.01 2.90 2.73 2.64 2.43 2.37 2.40 2.39 2.40 2.27 2.14 2.02 2.11 2.24 2.54 2.71 2.44 3.00 2.60 2.74 3.00 3.15 2.96 2.94 2.80 2.92 3.13 3.20 2.90 2.33 1.85 1.82 2.06 2.27 2.10 2.09 2.46 2.80
1.49 1.91 2.47 2.93 3.15 3.05 2.73 2.60 2.71 2.56 2.46 2.44 2.32 2.50 2.36 2.21 2.05 1.95 2.23 2.50 2.62 2.51 2.67 2.73 3.00 2.89 2.83 2.83 2.93 3.00 3.13 3.07 2.82 2.94 2.86 2.50 2.17 1.71 1.62 1.79 2.06 2.26 2.50
1.29 1.57 2.03 2.47 2.77 2.84 2.65 2.53 2.60 2.69 2.67 2.53 2.39 2.36 2.19 2.14 2.08 2.00 2.19 2.49 2.45 2.50 2.67 2.65 2.80 2.78 2.85 2.94 2.79 2.73 2.98 2.97 2.86 2.93 2.66 2.44 2.34 1.70 1.44 1.49 1.70 2.09 2.28